GFSMA_con_sbcape_336.txt.gz
CAPE
1541 2779 2556 3028 2504 2453 2358 2070 1470 2185 1446 1560 2251 2504 1546 1512 1312 1494 1031 2160 1895 1755 1639 1776 1893 1705 2000 1903 2018 2096 2120 1660 1640 1470 1393 1426 1482 1469 1137 1127 771 418 435
2398 2761 2882 3148 3209 2632 2446 2764 3442 3339 3054 1793 2314 2221 961 1171 1017 534 1058 1795 2297 2304 2280 2197 2234 2004 1975 1985 1969 2002 1950 1727 1544 1474 1370 1366 1145 1127 1100 961 569 677 570
3822 3546 2470 3209 2905 2707 3013 3051 3049 1 1109 1556 2201 1267 676 562 1102 1733 1490 1322 2005 2580 2611 2681 2366 1783 1409 895 778 907 914 800 1156 1490 1457 1237 1131 983 1027 899 863 676 448
3659 3835 3076 2667 2506 2073 3087 3350 1824 861 26 422 2032 867 86 455 1572 2131 1905 1291 1308 1290 2581 2534 2117 1650 1134 585 871 784 476 198 197 284 773 1202 1288 1109 1019 951 873 730 508
2359 3277 1846 1860 1639 2158 1797 1817 25 588 1191 1300 1804 812 157 1055 888 815 1009 1552 2063 1473 1633 2249 1895 1377 1032 618 497 287 129 116 154 238 354 447 499 434 599 863 755 670 580
1716 2660 2590 2084 2323 2279 1527 1388 1020 1254 2091 2118 1046 748 0 178 551 234 1585 1065 1977 1907 1456 1148 1346 1020 1531 1181 825 428 145 55 37 20 28 0 0 0 0 30 449 868 649
3499 2101 2007 1119 718 2100 579 256 456 1809 3113 1763 1049 0 0 1 0 0 192 416 1835 1888 1583 1377 1148 1127 1017 1231 1127 776 384 120 98 116 66 28 0 0 0 13 136 357 793
3056 1712 2057 1807 749 1083 0 0 1055 2846 1870 1865 2538 42 165 26 0 0 0 18 1693 1371 1515 1855 1921 1383 682 295 796 1023 785 531 418 484 297 0 0 0 0 0 0 177 448
2684 3305 3807 1483 3222 1071 0 847 423 3034 2147 1149 1700 2013 458 101 0 22 1 8 1341 1466 1499 1937 2256 1486 1447 585 1003 982 954 656 629 377 346 0 0 0 0 0 0 13 271
2816 2818 4031 4150 4321 3563 1666 486 574 3041 2926 2089 1806 1450 1058 167 18 0 143 0 0 1793 2343 2684 2423 2583 2561 1392 867 804 825 474 677 709 80 0 0 0 0 0 0 0 70
2591 3066 3409 4328 4383 3517 1038 0 0 1816 2759 2895 2563 1144 1104 2184 219 1759 729 458 214 1452 2407 2477 2351 2258 2359 2073 1249 801 500 377 559 292 27 0 0 0 0 0 0 0 0
1756 2428 2949 4210 4200 3775 270 0 0 512 2649 3344 3130 2892 2788 1983 2631 2450 1647 1215 1437 1209 1837 2125 1815 2352 2452 2345 2240 1346 590 283 204 49 19 0 0 0 0 0 0 0 0
2029 2586 3212 4327 4032 4305 1907 428 0 2470 3114 3074 3543 3366 2665 1685 2181 1837 2180 1960 2414 1766 1871 1506 1643 2065 2292 2417 1858 947 828 304 42 0 0 0 0 0 0 0 0 0 0
1880 2196 2932 3940 4181 875 1018 1295 3226 3110 3615 3676 3016 3447 3006 2572 2350 313 695 1504 1704 2006 587 386 113 382 1260 1934 1855 1240 709 306 39 0 0 0 0 0 0 0 0 0 0
2495 2820 1614 171 923 3823 3743 3856 3293 3179 3306 3906 3517 3458 3489 2884 2541 1 0 0 1696 1164 1649 431 591 601 67 788 665 1230 1187 285 85 1 0 0 0 0 0 0 0 0 0
3458 2421 1225 655 264 126 3624 2256 3208 3807 2753 3490 3491 2678 3229 2831 2113 147 56 10 2564 1837 1671 2293 1893 623 662 0 0 1032 1658 354 13 11 0 0 0 0 0 0 0 0 0
3406 3954 1799 198 0 18 2935 2981 3103 3058 2726 3581 3076 2373 1629 1548 1361 1446 1627 1597 1926 2378 2067 1875 929 1570 592 639 1080 1712 1933 1067 87 29 1 0 0 0 0 0 0 0 0
4229 4236 4280 3450 2915 3832 3210 3202 2720 2826 2724 2746 3219 2908 1595 1846 1229 2321 1755 1848 1703 1133 828 721 1324 1461 2004 2277 2910 2301 2277 1746 1662 260 9 0 0 0 0 0 0 0 0
3971 3605 3713 3628 2596 2870 2569 2601 3131 2627 2249 2231 2507 2249 2160 1957 2159 2014 1791 1442 935 869 890 1093 653 452 1405 1989 1942 1941 1824 1851 1909 1840 14 0 0 0 0 0 0 0 0
1736 1595 1789 2343 2809 2139 1337 1163 1901 1781 1590 1416 1527 1547 1397 1601 1524 1718 1475 838 938 1169 789 1001 149 97 449 1038 1894 1834 1563 1822 2055 1958 1250 15 0 0 0 0 0 0 0
99 203 400 1154 570 559 55 154 149 252 361 408 687 650 627 92 0 10 78 259 92 26 1 0 0 0 0 99 3 334 665 987 524 1545 1528 623 30 0 0 0 0 0 0
85 182 300 281 668 0 0 0 0 1 44 104 317 258 212 62 83 0 0 0 0 0 60 16 0 0 0 0 0 0 1 0 0 36 0 284 102 419 122 1 0 0 0
188 478 495 369 197 0 0 0 0 0 0 29 13 184 153 24 50 137 9 0 0 0 0 0 24 25 35 216 546 670 364 280 273 354 101 9 24 49 437 467 64 0 0
224 386 368 153 149 0 0 0 0 0 0 0 0 0 44 16 15 2 0 0 0 0 0 0 1 32 202 301 566 369 255 228 131 54 0 0 0 32 54 48 0 0 0
330 191 223 143 107 25 0 0 0 0 0 0 0 0 0 26 0 0 0 0 0 0 0 0 0 0 0 0 0 2 5 0 0 0 0 7 54 70 3 189 98 0 0
247 71 162 171 25 32 0 0 0 0 0 0 0 0 0 0 0 0 0 0 0 0 0 0 0 0 0 0 0 0 0 1 1 1 88 275 414 318 217 387 610 0 0

GFSMA_con_sbcape_339.txt.gz
CAPE
1066 895 1514 1299 1907 996 1306 942 216 483 448 964 1184 1187 1527 1612 1379 1076 1532 2944 2419 2097 2255 1639 1584 1929 1976 2016 2091 1884 1615 1279 1612 1459 1143 1193 1154 1331 1266 887 690 607 505
1227 1531 1316 1457 1774 1529 1676 1037 612 555 1363 1242 674 1475 1518 691 803 460 564 1741 2191 1980 2198 2191 2178 2320 1908 2194 2008 1972 1723 1459 1733 1629 1497 1319 1292 1273 1481 1277 1056 805 638
984 1151 1483 1778 2048 1789 1713 1299 994 0 487 573 1036 1356 687 1073 871 657 710 1132 1762 2425 2551 2639 2616 2398 2410 2263 2052 1913 1739 1810 1759 1627 1419 1382 1272 1247 1205 1207 1104 962 788
1455 1960 1855 2254 1762 1373 1252 1679 974 1031 591 0 415 31 56 511 455 689 732 757 1244 1327 2430 2688 2462 1994 1770 1162 876 1039 990 779 768 1050 1504 1491 1358 1203 1077 942 866 807 812
1510 2262 2010 1799 1222 936 1335 427 79 445 425 420 868 567 18 0 5 272 473 657 682 912 1430 2479 2175 1809 1404 734 905 765 394 409 473 469 773 1124 1091 1045 936 988 863 776 770
1737 667 1954 2165 1471 1397 939 507 532 501 639 836 1670 1040 24 9 0 34 7 88 123 738 1112 1347 1413 1094 1497 1180 1091 596 188 123 228 256 409 519 453 205 81 156 648 825 735
1117 1770 1559 1454 560 668 726 167 83 430 516 7 0 2 0 0 0 0 0 2 15 221 856 724 723 524 1046 1531 1165 932 435 92 48 146 316 223 151 73 35 45 78 171 786
2302 1016 996 1212 135 290 210 0 443 1020 1374 772 204 38 102 0 0 0 1 13 39 147 224 654 599 529 610 773 732 1094 927 372 193 164 468 267 68 10 0 0 0 68 271
1629 1452 1371 1898 963 825 390 13 309 567 1052 639 527 347 215 107 0 0 0 0 25 16 72 1058 906 828 354 236 709 1058 1087 777 743 424 381 319 32 0 0 0 0 3 145
1196 1753 2466 1913 1716 794 21 70 0 0 523 1114 906 831 668 8 0 0 0 0 0 0 76 1448 1552 1093 761 214 431 778 1096 654 866 742 792 167 0 0 0 0 0 0 0
1364 1568 1646 3003 2897 1068 380 306 655 276 1338 1523 1368 518 458 20 0 160 111 128 13 11 46 1047 1588 1236 1303 594 423 486 811 653 560 724 860 218 0 0 0 0 0 0 0
1603 1547 1961 2454 2746 1330 698 175 0 0 166 1351 1113 1301 917 776 437 164 627 278 396 490 786 234 39 9 113 447 877 901 1039 635 329 439 249 99 0 0 0 0 0 3 0
1180 1157 1445 2382 2881 1271 91 106 36 6 28 1541 1436 1498 1784 905 0 0 410 447 558 550 681 14 56 33 19 0 271 1148 1466 556 226 76 6 0 0 0 0 0 0 2 1
735 1249 1717 2226 1338 600 197 41 401 595 359 1379 1610 1633 1755 890 258 111 0 37 306 659 234 69 0 26 1 0 78 529 682 423 154 22 0 0 0 0 0 0 0 0 0
1511 1528 1201 0 0 151 643 0 133 982 1221 1678 1808 1664 1667 87 0 0 1 3 112 353 431 7 0 0 0 0 7 161 544 322 114 5 0 0 0 0 0 0 0 0 0
1487 1303 475 90 145 169 51 941 66 0 184 1488 1806 1510 1544 363 0 0 0 0 0 22 343 86 414 55 12 10 26 21 15 377 119 38 0 0 0 0 0 0 0 0 0
1654 1035 967 738 319 0 0 1242 552 313 1097 1379 1475 1167 1007 607 844 325 372 666 438 474 292 304 319 86 120 76 10 0 463 654 225 55 2 0 0 0 0 0 0 0 0
1185 1650 983 471 28 0 410 1346 1650 1604 1518 1223 1263 1410 780 504 682 1049 871 710 729 468 342 255 400 391 163 126 80 558 949 1260 361 117 30 9 0 0 0 0 0 0 0
327 998 1187 1123 1093 1382 1229 1215 1023 804 653 746 748 673 1031 993 969 901 891 816 506 577 325 428 283 174 149 200 888 1122 1254 1306 1261 1313 94 12 0 0 0 0 0 0 0
14 134 234 69 7 0 115 107 27 14 69 110 215 176 39 23 119 429 350 64 105 96 111 77 13 0 0 0 305 595 676 810 1029 1191 1262 179 7 0 0 0 0 0 0
61 96 61 136 12 0 1 0 0 0 0 0 9 8 13 30 29 0 0 0 0 0 0 0 0 0 0 0 0 0 0 4 27 567 975 591 34 0 0 0 0 0 0
6 64 66 18 11 2 0 0 0 0 0 0 0 0 0 0 0 0 0 0 0 0 0 2 5 12 0 0 0 0 0 0 0 0 0 0 42 12 0 0 0 0 0
49 161 135 59 3 0 0 0 0 0 0 0 0 0 0 1 0 0 0 0 0 0 0 0 0 0 0 3 6 87 140 87 84 47 46 48 0 0 0 25 0 0 0
79 113 31 24 0 0 0 0 0 0 0 0 0 0 0 0 0 0 0 0 0 0 0 0 0 0 0 0 0 0 0 0 0 0 0 0 0 0 0 0 0 0 0
29 4 1 0 0 0 0 0 0 0 0 0 0 0 0 0 0 0 0 0 0 0 0 0 0 0 0 0 0 0 0 0 0 0 0 0 0 0 0 0 0 0 0
8 0 0 0 0 0 0 0 0 0 0 0 0 0 0 0 0 0 0 0 0 0 0 0 0 0 0 0 0 0 0 0 0 0 0 0 10 20 7 1 70 3 0

GFSMA_con_sbcape_342.txt.gz
CAPE
772 1055 1061 1046 1297 1106 909 863 108 11 81 299 935 1382 948 1381 1218 1242 1142 2946 2568 2597 2929 2624 2121 1766 1672 2108 1990 2230 1803 1456 1621 1339 1312 1270 1311 1174 1177 856 766 788 704
483 700 735 902 1149 1218 990 945 815 362 465 945 746 581 1253 995 1045 596 586 1626 2484 2662 2682 2464 2121 1734 1944 1961 2197 2111 1926 1670 1669 1598 1562 1476 1278 1225 1172 913 760 744 796
1016 983 879 955 1458 1576 1389 1519 780 583 454 466 291 199 574 1164 772 37 220 410 1321 2523 2388 2563 2546 2625 2288 1910 1986 2014 2134 1950 1825 1685 1667 1606 1425 1372 1206 1073 1035 914 787
770 940 1193 1204 1673 1067 811 1302 814 77 42 168 175 129 270 313 264 1080 854 888 1199 1454 2023 2430 2555 2624 2542 2348 1668 1738 1624 1339 1455 1542 1725 1619 1587 1488 1259 1102 1025 914 818
873 1300 1413 1345 1101 1179 1090 722 146 394 273 352 259 55 0 58 98 1035 822 748 722 867 1089 1613 1994 2399 1979 1253 862 875 867 749 574 644 809 1162 1306 1269 1200 1094 956 870 797
1360 1392 1549 1562 1374 1101 667 253 205 275 661 1095 1571 942 93 1 46 241 324 154 49 450 790 1027 1475 1457 2018 1545 1407 1124 726 288 216 266 388 719 719 832 599 656 819 689 624
1547 1325 952 1473 1066 1074 662 192 1 76 330 179 5 0 0 0 0 0 22 18 52 292 822 860 891 700 891 1765 1513 1339 590 309 174 134 106 259 121 102 32 0 44 114 422
1268 1020 1156 1258 707 394 171 29 48 769 607 3 281 10 34 8 0 0 11 55 32 179 296 830 597 524 349 959 898 1355 997 471 197 98 166 314 186 75 29 0 3 17 84
1607 1365 665 1132 603 485 331 45 0 490 743 475 181 102 13 14 0 0 0 0 7 81 134 156 723 507 329 445 856 1001 1190 904 716 309 242 470 194 28 5 0 0 0 21
1794 1573 1131 1256 1433 838 484 246 1 1 349 674 583 720 240 0 0 0 0 0 0 5 37 2 593 772 488 244 340 863 1041 772 912 740 602 450 256 19 0 0 0 0 0
1233 1412 1360 1850 1452 897 769 184 27 201 49 868 670 233 172 0 0 5 7 0 73 38 25 80 469 837 554 278 110 348 941 936 792 1022 1035 1030 472 7 0 0 0 0 0
908 820 1030 1252 2164 1604 1014 483 260 122 0 525 894 817 152 183 167 111 196 213 148 332 194 127 76 70 40 248 854 827 906 955 607 547 635 943 471 12 0 0 1 3 3
1112 1048 1040 1459 2172 1516 915 121 1 0 0 43 915 1061 941 609 3 0 14 91 133 202 145 93 144 27 100 9 5 952 1700 843 529 221 138 327 166 66 1 0 1 3 5
644 698 915 1414 1307 1449 375 119 72 181 195 130 467 1305 938 48 25 0 0 24 110 204 19 170 141 136 52 21 5 367 1108 1031 554 164 88 64 0 0 1 0 0 2 2
278 422 1232 1444 1118 843 580 89 0 0 669 1080 1346 1430 1126 328 179 8 0 9 123 194 70 40 0 0 8 17 14 19 283 596 527 146 30 0 0 0 0 0 0 0 0
783 1799 1163 414 227 549 630 391 85 0 0 0 1016 1323 892 0 0 0 0 0 5 72 172 87 15 39 61 37 28 24 40 217 359 194 18 0 0 0 0 0 0 0 0
742 1226 980 312 141 96 6 151 641 25 0 265 983 792 691 12 248 0 0 8 223 243 301 281 238 215 190 58 20 39 46 36 222 157 48 2 0 0 0 0 0 0 0
310 601 545 601 251 146 17 0 762 1403 1075 952 1049 574 491 465 609 326 380 294 470 428 175 167 153 240 118 135 70 58 44 164 425 255 26 21 0 0 0 0 0 0 0
89 59 9 221 76 50 455 277 346 322 173 280 368 460 393 111 619 939 718 587 250 296 162 306 236 162 212 172 243 267 512 739 818 589 77 0 0 0 0 0 0 0 0
15 19 0 1 1 2 1 0 0 0 2 0 2 9 2 0 68 331 227 95 23 12 0 14 2 0 0 0 8 40 23 170 500 836 1058 206 15 0 0 0 0 0 0
66 13 6 1 1 0 5 0 0 0 0 0 0 2 1 17 15 0 0 0 0 0 0 0 0 0 0 0 0 0 0 0 0 6 100 400 118 0 0 0 0 0 0
0 19 22 1 1 2 1 0 0 0 0 0 0 0 0 0 0 0 0 0 0 0 0 0 0 0 0 0 0 0 0 12 79 0 0 33 0 0 0 0 0 0 0
68 92 12 12 0 0 0 0 0 0 0 0 0 0 0 0 0 0 0 0 0 0 0 0 0 0 0 0 0 0 0 0 1 12 0 0 0 0 0 0 0 0 0
46 119 6 0 0 0 0 0 0 0 0 0 0 0 0 0 0 0 0 0 0 0 0 0 0 0 0 0 0 0 0 0 0 0 0 0 0 0 0 0 0 0 0
6 0 0 0 0 0 0 0 0 0 0 0 0 0 0 0 0 0 0 0 0 0 0 0 0 0 0 0 0 0 0 0 0 0 0 0 0 0 0 0 0 0 0
0 0 0 0 0 0 0 0 0 0 0 0 0 0 0 0 0 0 0 0 0 0 0 0 0 0 0 0 0 0 0 0 0 0 0 0 0 0 0 0 0 0 0

GFSMA_con_sbcape_345.txt.gz
CAPE
11 369 1065 854 1067 1380 1219 1137 398 53 0 24 378 985 1127 748 1043 1168 1154 1736 2651 2754 2668 2117 2381 1966 1892 1812 1591 1441 1509 1369 1390 1110 755 771 923 1040 1191 999 803 722 691
91 543 713 597 891 1148 970 816 728 252 214 758 586 725 888 1209 1228 1348 883 1043 2955 2543 2275 2094 2074 2000 1892 1699 1913 1487 1319 1169 1554 1425 1164 1135 1068 910 833 688 765 811 962
334 523 558 747 904 1497 918 912 629 405 579 660 339 346 754 1146 1067 736 385 322 1641 2500 2249 1911 2189 1608 1852 1900 1678 1845 2005 1691 1763 1639 1517 1136 1090 1004 781 705 597 659 782
500 648 822 801 1011 920 888 1245 312 87 254 131 131 88 399 434 358 725 282 300 596 1178 1689 2135 2364 1807 2093 1761 1345 1704 2189 2012 1924 1851 1688 1447 1315 1016 912 873 659 666 726
614 642 1041 1172 1194 924 896 611 265 170 54 125 91 19 9 180 121 646 985 720 612 906 849 1439 1951 1921 1715 1698 1619 1103 1239 1031 817 706 719 983 1239 1292 1166 1039 898 742 685
751 839 1222 1346 1462 1203 856 36 0 165 375 344 998 738 120 0 0 80 306 288 131 417 489 726 880 1043 1900 1810 1676 1043 894 686 300 125 185 342 696 887 873 788 806 832 712
969 1228 1415 1125 1278 1166 770 309 56 91 376 535 18 1 0 0 0 0 2 32 19 90 671 602 658 818 651 1763 1552 1508 1052 544 225 184 234 433 471 418 62 4 3 33 219
883 1374 1227 1014 1186 814 564 273 91 532 407 77 49 0 0 0 0 0 0 6 19 32 289 390 642 591 473 368 785 1381 1145 698 375 219 115 285 174 141 26 5 0 0 17
1280 1288 1090 1016 1102 601 254 7 0 249 567 259 8 37 11 0 0 0 0 0 2 3 22 58 132 465 363 240 550 975 1340 1094 735 373 267 370 362 123 32 0 0 0 0
1334 1456 1191 933 897 455 555 337 0 2 370 502 314 263 35 0 0 0 0 0 0 0 0 0 20 254 482 254 429 694 907 907 936 666 606 452 664 287 16 0 0 0 0
1175 1599 1498 960 1029 1002 829 353 11 0 0 0 414 202 18 0 0 0 12 0 5 13 0 0 0 51 664 338 191 306 948 896 901 939 1024 980 1002 630 121 0 0 0 0
339 914 1124 1206 1428 1196 1052 838 173 15 136 260 640 410 111 20 6 34 118 65 49 175 90 52 101 418 492 451 440 456 542 938 846 653 721 1011 1155 1071 237 3 0 1 2
633 822 816 801 1096 1653 1518 877 461 136 0 0 0 455 499 332 122 41 19 79 17 142 26 54 70 21 21 1 2 480 1153 797 653 572 425 478 630 807 365 77 0 0 1
600 515 681 737 1225 1642 1377 516 314 218 0 0 23 245 735 566 3 0 4 68 114 162 19 80 65 36 58 22 26 47 215 798 883 453 293 208 210 341 154 90 47 4 0
756 676 550 693 918 1345 1043 323 250 249 160 352 590 842 658 493 16 0 0 25 137 124 59 27 21 7 5 2 3 0 0 78 625 561 166 73 70 85 2 0 0 0 0
971 1046 1176 1290 1061 921 636 273 3 0 0 0 0 349 736 107 125 20 0 5 2 58 123 25 19 50 29 47 16 32 12 4 56 302 237 59 5 10 0 0 0 0 0
481 336 728 872 372 183 250 159 69 61 14 3 0 433 716 16 17 0 0 2 0 9 93 143 100 69 38 48 77 49 7 4 2 40 148 77 10 0 0 0 0 0 0
95 78 74 71 420 24 8 4 11 589 156 60 193 584 652 91 183 0 0 0 0 60 200 47 229 219 149 171 119 50 25 44 39 153 114 68 0 0 0 0 0 0 0
13 0 0 0 0 13 2 21 26 5 88 89 47 250 307 267 347 214 83 125 211 228 51 69 165 112 191 106 134 105 172 202 311 721 498 110 20 0 0 0 0 0 0
2 0 0 0 0 1 2 1 1 0 10 28 14 0 0 26 113 245 169 132 35 43 0 1 0 0 0 0 0 0 0 0 0 138 451 285 94 3 0 0 0 0 0
11 0 1 0 0 0 0 0 0 0 2 1 0 1 5 5 3 8 7 0 0 0 0 0 0 0 0 0 0 0 0 0 0 0 0 2 51 22 0 0 0 0 0
1 1 0 0 1 3 0 0 0 0 0 0 0 0 0 0 0 0 0 0 0 0 0 0 0 0 0 0 0 0 0 0 0 0 0 0 0 0 0 0 0 0 0
0 1 32 0 0 0 0 0 0 0 0 0 0 0 0 0 0 0 0 0 0 0 0 0 0 0 0 0 0 0 0 0 0 0 0 0 0 0 0 0 0 0 0
30 29 0 0 0 0 0 0 0 0 0 0 0 0 0 0 0 0 0 0 0 0 0 0 0 0 0 0 0 0 0 0 0 0 0 0 0 0 0 0 0 0 0
0 0 0 0 0 0 0 0 0 0 0 0 0 0 0 0 0 0 0 0 0 0 0 0 0 0 0 0 0 0 0 0 0 0 0 0 0 0 0 0 0 0 0
0 0 0 0 0 0 0 0 0 0 0 0 0 0 0 0 0 0 0 0 0 0 0 0 0 0 0 0 0 0 0 0 0 0 0 0 0 0 0 0 1 0 0